Regional Weather Roundup
Issued by NWS Kansas City/Pleasant Hill, MO

Home | Current Version | Previous Version | Text Only | Print | Product List | Glossary On
Versions: 1 2 3 4 5 6 7 8 9 10 11 12 13 14 15 16 17 18 19 20 21 22 23 24 25 26 27
000
ASUS43 KEAX 241710
RWREAX

WEATHER ROUNDUP FOR EASTERN KANSAS AND NORTHWEST MISSOURI
NATIONAL WEATHER SERVICE KANSAS CITY/PLEASANT HILL MO
1200 PM CDT SUN JUL 24 2016

KSZ040-057-103>105-MOZ028-029-037-043-241800-
...KANSAS CITY METROPOLITAN AREA...

CITY           SKY/WX    TMP DP  RH WIND       PRES   REMARKS
K.C. INTL      MOSUNNY   92  75  57 VRB5      29.95R HX 103
K.C. DOWNTOWN  SUNNY     91  72  53 NW5       29.93R HX  98
LEES SUMMIT    SUNNY     93  71  48 VRB3      29.96R HX 100
OLATHE - IXD   SUNNY     93  71  48 VRB6      29.96R HX 100
OLATHE - OJC   SUNNY     91  71  51 W3        29.95S HX  97
LAWRENCE       MOSUNNY   92  75  57 N5        29.93R HX 103

$$

MOZ001>008-011>017-020>025-030>033-038>040-044>046-053-054-241800-
...NORTHERN AND CENTRAL MISSOURI...

CITY           SKY/WX    TMP DP  RH WIND       PRES   REMARKS
ST. JOSEPH     PTSUNNY   89  75  63 MISG      29.92S HX  99
MOSBY          SUNNY     91  72  52 CALM      29.93S HX  98
WHITEMAN AFB   MOSUNNY   91  76  61 W7        29.95S HX 103
CLINTON        MOSUNNY   90  77  66 SW6       29.97R HX 102
SEDALIA        CLOUDY    91  76  61 W7        29.98R HX 103
WARSAW         NOT AVBL
CHILLICOTHE      N/A     93  73  52 W7        29.92S HX 102
KIRKSVILLE     PTSUNNY   91  73  55 W6        29.92S HX  99

$$

MOZ041-047>049-056>058-063>065-088>090-097-241800-
...EASTERN AND SOUTHERN MISSOURI...

CITY           SKY/WX    TMP DP  RH WIND       PRES   REMARKS
ST. LOUIS INTL MOSUNNY   95  76  53 S5        29.96F HX 108
SPIRIT OF STL  SUNNY     94  78  60 SW6       29.94F HX 110
COLUMBIA       SUNNY     92  76  59 SW10      29.96S HX 104
JEFFERSON CITY SUNNY     94  73  50 W8G18     29.94S HX 103
ROLLA          SUNNY     91  76  61 SW8       29.99S HX 103
OSAGE BEACH    SUNNY     91  75  59 W6        29.99S HX 101
SPRINGFIELD    SUNNY     93  72  50 W7        30.01S HX 101
BRANSON        MOSUNNY   90  73  58 NW7       30.04S HX  98
JOPLIN         SUNNY     91  75  59 VRB6      30.00S HX 101
WEST PLAINS    SUNNY     91  73  55 SW6       30.04F HX  99

$$

IAZ060-094-KSZ022-034>040-054-083-096-NEZ052-066-093-241800-
...KANSAS...SOUTHEAST NEBRASKA AND IOWA...

CITY           SKY/WX    TMP DP  RH WIND       PRES   REMARKS
TOPEKA           N/A     90  75  61 N9        29.94R HX 100
MANHATTAN      CLOUDY    85  73  67 NE8       29.94R HX  91
EMPORIA        CLOUDY    93  69  45 W6        29.94F HX  98
CHANUTE        SUNNY     92  75  57 SW9       29.96S HX 103
WICHITA        MOSUNNY   98  67  36 S12       29.94S HX 102
OMAHA          CLOUDY    85  66  53 N8        29.98R
LINCOLN        CLOUDY    83  63  50 N12       30.01S
FALLS CITY     CLOUDY    87  79  76 N14       29.92R HX 101
LAMONI         CLOUDY    87  78  74 NW8       29.92S HX 100
DES MOINES     MOSUNNY   89  74  60 N12       29.92R HX  98

$$





USA.gov is the U.S. government's official web portal to all federal, state and local government web resources and services.